This is the latest recevied weather packets stored in our database for station/object KI5RAB. If no packets are shown the sender has not sent any weather packets the latest 10 day(s).
| Time | Temp. | Humidity | Pressure | Rain* | Wind** | Luminosity | Snow |
|---|---|---|---|---|---|---|---|
| 1788554286 | 30° C | 75% | 1016.4 hPa | 0 mm | - | 135 W/m² | - |
| 1788553982 | 30° C | 75% | 1016.6 hPa | 0 mm | - | 121 W/m² | - |
| 1788553678 | 30° C | 75% | 1016.7 hPa | 0 mm | - | 115 W/m² | - |
| 1788553374 | 30.56° C | 73% | 1016.7 hPa | 0 mm | - | 113 W/m² | - |
| 1788553069 | 30.56° C | 72% | 1016.5 hPa | 0 mm | - | 119 W/m² | - |
| 1788552764 | 30.56° C | 71% | 1016.6 hPa | 0 mm | - | 135 W/m² | - |
| 1788552458 | 30.56° C | 71% | 1016.5 hPa | 0 mm | - | 151 W/m² | - |
| 1788552153 | 30.56° C | 71% | 1016.5 hPa | 0 mm | - | 173 W/m² | - |
| 1788551852 | 31.11° C | 71% | 1016.6 hPa | 0 mm | - | 197 W/m² | - |
| 1788551550 | 31.11° C | 71% | 1016.8 hPa | 0 mm | - | 217 W/m² | - |
| 1788551246 | 31.67° C | 68% | 1016.8 hPa | 0 mm | - | 268 W/m² | - |
| 1788550945 | 31.67° C | 68% | 1016.9 hPa | 0 mm | - | 353 W/m² | - |
| 1788550640 | 31.67° C | 68% | 1016.5 hPa | 0 mm | - | 358 W/m² | - |
| 1788550336 | 31.11° C | 69% | 1016.7 hPa | 0 mm | - | 437 W/m² | - |
| 1788550031 | 30.56° C | 70% | 1016.9 hPa | 0 mm | - | 288 W/m² | - |
| 1788549727 | 31.11° C | 69% | 1017.1 hPa | 0 mm | - | 224 W/m² | - |
| 1788549423 | 31.67° C | 67% | 1017.2 hPa | 0 mm | - | 210 W/m² | - |
| 1788549119 | 31.67° C | 66% | 1017.1 hPa | 0 mm | - | 260 W/m² | - |
| 1788548815 | 31.11° C | 67% | 1017.2 hPa | 0 mm | - | 289 W/m² | - |
| 1788548510 | 31.67° C | 70% | 1017 hPa | 0 mm | - | 258 W/m² | - |
| 1788548207 | 31.11° C | 68% | 1017.3 hPa | 0 mm | - | 230 W/m² | - |
| 1788547908 | 31.11° C | 69% | 1017.2 hPa | 0 mm | - | 204 W/m² | - |
| 1788547600 | 31.11° C | 68% | 1017.2 hPa | 0 mm | - | 195 W/m² | - |
| 1788547296 | 31.11° C | 68% | 1017.3 hPa | 0 mm | - | 196 W/m² | - |
| 1788546992 | 31.11° C | 68% | 1017.4 hPa | 0 mm | - | 186 W/m² | - |
* Rain latest hour (hover to see other rain measurements)
** Current wind speed in m/s (hover to see current wind gust speed)